Find Starlink 34654

NORAD ID: 64858 Int'l Des: 2025-152 Owner: SPXS Country: US Constellation: starlink operational
LEOCIRCULARRETROGRADESSO

Live Position

Loading 3D Globe...

About Starlink 34654

Description loading...

Upcoming Passes

Passes for default location (London). Set your location on the main map for personalized predictions.

Altitude History

Loading altitude history...

Two-Line Element Set

1 64858U 25152S 26106.18343394 .00003482 00000-0 24534-3 0 9994
2 64858 97.6039 322.5229 0002182 80.3242 279.8231 15.05660394 41066
Epoch: Apr 16, 2026 • Age: 15 hours

Current Status

Altitude 561.3 km
Velocity 7.59 km/s
Sub-Earth Point 79.74°N, 144.17°E
Launch Date Jul 19, 2025
Age 0.7 years
Type internet

Technical Details

Classification Payload
Mass 575.00 kg
Dry Mass 530.00 kg
Total Mass 575.00 kg
Length 0.30 m
Diameter 4.10 m
Span 29.00 m
Shape Box + pan
Manufacturer SPXS
Bus Type Starlink V2MO
Phase Status In Orbit
Owner/State SPXS/US

Most Searched